User: anonymous   Login
Location: Unspecified
(0.0000°N, 0.0000°E)
Time: 08:58:59
(UTC+00:00)
Language:

DSP F17 - Orbit

View from above orbital plane
View from above orbital plane
View from above satellite
View from above satellite

Ground track
Ground track

The orbit data is extracted from the following two-line orbital elements,

1 23435U 94084A   17025.85487821 0.00000000  00000-0  00000-0 0    03
2 23435  14.0522  24.1031 0002498 251.5029 108.3904  1.00270000    06
Epoch (UTC): 25 January 2017 20:31:01
Eccentricity: 0.0002498
inclination: 14.0522°
perigee height: 35776 km
apogee height: 35797 km
right ascension of ascending node: 24.1031°
argument of perigee: 251.5029°
revolutions per day: 1.00270000
mean anomaly at epoch: 108.3904°
orbit number at epoch: 0

The dashed part of the orbit path shows where the satellite is in the earth's shadow,  

DLR